Estación Meteorológica Peña el Pijo (Robertgarden) [ 02/19/20 14:35:06 CET ]

Fecha Hora Presion(HPa) Temp (°C) Humedad % Rocio (°C) Viento ( m/s) Direccion Lluvia 1Hora(mm) Lluvia 24H(mm) LLuvia Total(mm)
2020-Jan-16 01:08:51 1016.200 - - - - N     39.88
2020-Jan-16 02:10:09 1016.000 - - - - N     39.88
2020-Jan-16 03:10:03 1016.300 - - - - N     39.88
2020-Jan-16 04:12:47 1016.100 - - - - N     39.88
2020-Jan-16 05:09:05 1015.800 - - - - N     39.88
2020-Jan-16 06:09:05 1015.800 - - - - N     39.88
2020-Jan-16 07:09:21 1016.000 - - - - N     39.88
2020-Jan-16 08:09:10 1016.100 - - - - N     39.88
2020-Jan-16 09:09:13 1016.500 - - - - N     39.88
2020-Jan-16 10:09:09 1016.400 - - - - N     39.88
2020-Jan-16 11:09:21 1016.500 - - - - N     39.88
2020-Jan-16 12:08:47 1015.700 - - - - N     39.88
2020-Jan-16 13:09:16 1014.700 - - - - N     39.88
2020-Jan-16 14:09:24 1014.300 - - - - N     39.88
2020-Jan-16 15:09:02 1013.800 - - - - N     39.88
2020-Jan-16 16:09:02 1013.900 - - - - N     39.88
2020-Jan-16 17:09:34 1014.200 - - - - N     39.88
2020-Jan-16 18:09:18 1014.700 - - - - N     39.88
2020-Jan-16 19:09:17 1015.300 - - - - N     39.88
2020-Jan-16 20:09:13 1015.900 - - - - N     39.88
2020-Jan-16 21:09:27 1016.300 - - - - N     39.88
2020-Jan-16 22:09:08 1016.800 - - - - N     39.88
2020-Jan-16 23:09:04 1016.800 - - - - N     39.88

Temperatura Máxima:    Temperatura Mínima:
Presión Máxima:1016.800 Hpa    Presión Mínima:1013.800 Hpa


Volver